sat.trackr.live / text

‹ back to catalog

STARLINK-37105

NORAD 68610 · 2026-073J

PAYLOAD ACTIVE UNKNOWN

§ Identity

Operator
Country
US
Launch date
2026-04-07
Launch site
AFWTR
Launch vehicle
Mass (kg)
RCS (m²)

Purposes: comms

External: N2YO · Heavens-Above · Gunter

§ Orbital elements

Epoch: 2026-05-25T04:00:03.998880Z

Period
91.95 min
Inclination
97.2852°
Eccentricity
0.0001664
Mean motion
15.66147884 rev/d
Perigee alt
368.8 km
Apogee alt
371.1 km
Semi-major
6,748.1 km
B*
-2.1349e-2
RAAN
344.6810°
Arg perigee
89.8314°
Mean anomaly
268.9284°
Rev number
588

§ Raw data

STARLINK-371051 68610U 26073J   26145.16671295 -.01935755  00000+0 -21349-1 0  99902 68610  97.2852 344.6810 0001664  89.8314 268.9284 15.66147884  5882

JSON: /api/v1/satellites/68610 · /tle

For live sub-satellite position, see the globe view (requires WebGL).

§ Visibility from observer

Set your observer location to see the next 7 days of passes ≥ 10°. The values pass through the URL so the page stays shareable.

No JS? Fill the form by hand. The geolocation button needs JavaScript.